• In Russia
  • List of Countries
  • For 7 days
  • Water Temperature
  • Satellite Maps
  • Weather Map
  • Weather Widgets
  • user-avatar
    Login

    Hourly Weather Newcastle

    Today, 20 September, Wednesday

    Time Temperature Precipitation Wind Pressure Humidity
    00:00 +11°C° 0 mm 4 mps 764 mmHg 62%
    01:00 +10°C° 0 mm 4 mps 764 mmHg 64%
    02:00 +9°C° 0 mm 3 mps 764 mmHg 66%
    03:00 +9°C° 0 mm 3 mps 764 mmHg 68%
    04:00 +8°C° 0 mm 2 mps 764 mmHg 73%
    05:00 +9°C° 0 mm 2 mps 764 mmHg 71%
    06:00 +9°C° 0 mm 3 mps 764 mmHg 69%
    07:00 +10°C° 0 mm 3 mps 765 mmHg 67%
    08:00 +13°C° 0 mm 3 mps 764 mmHg 61%
    09:00 +17°C° 0 mm 2 mps 764 mmHg 56%
    10:00 +20°C° 0 mm 2 mps 764 mmHg 50%
    11:00 +21°C° 0 mm 2 mps 764 mmHg 47%
    12:00 +23°C° 0 mm 2 mps 763 mmHg 45%
    13:00 +23°C° 0 mm 2 mps 763 mmHg 42%
    14:00 +22°C° 0 mm 3 mps 762 mmHg 45%
    15:00 +21°C° 0 mm 3 mps 762 mmHg 47%
    16:00 +21°C° 0 mm 3 mps 762 mmHg 50%
    17:00 +18°C° 0 mm 3 mps 762 mmHg 61%
    18:00 +16°C° 0 mm 3 mps 762 mmHg 73%
    19:00 +13°C° 0 mm 3 mps 763 mmHg 84%
    20:00 +13°C° 0 mm 3 mps 763 mmHg 87%
    21:00 +13°C° 0 mm 2 mps 763 mmHg 90%
    22:00 +13°C° 0 mm 2 mps 763 mmHg 93%
    23:00 +12°C° 0 mm 2 mps 763 mmHg 94%

    Tomorrow, 21 September, Thursday

    Time Temperature Precipitation Wind Pressure Humidity
    00:00 +12°C° 0 mm 2 mps 763 mmHg 95%
    01:00 +10°C° 0 mm 2 mps 763 mmHg 96%
    02:00 +10°C° 0 mm 2 mps 763 mmHg 96%
    03:00 +10°C° 0 mm 2 mps 763 mmHg 96%
    04:00 +10°C° 0 mm 2 mps 762 mmHg 96%
    05:00 +10°C° 0 mm 2 mps 762 mmHg 91%
    06:00 +12°C° 0 mm 2 mps 762 mmHg 86%
    07:00 +12°C° 0 mm 2 mps 763 mmHg 81%
    08:00 +16°C° 0 mm 2 mps 762 mmHg 66%
    09:00 +20°C° 0 mm 2 mps 762 mmHg 51%
    10:00 +25°C° 0 mm 1 mps 762 mmHg 36%
    11:00 +26°C° 0 mm 2 mps 761 mmHg 32%
    12:00 +28°C° 0 mm 3 mps 760 mmHg 29%
    13:00 +29°C° 0 mm 3 mps 760 mmHg 26%
    14:00 +29°C° 0 mm 4 mps 759 mmHg 28%
    15:00 +29°C° 0 mm 4 mps 759 mmHg 30%
    16:00 +29°C° 0 mm 4 mps 758 mmHg 32%
    17:00 +26°C° 0 mm 4 mps 759 mmHg 40%
    18:00 +22°C° 0 mm 5 mps 759 mmHg 49%
    19:00 +19°C° 0 mm 5 mps 760 mmHg 57%
    20:00 +18°C° 0 mm 4 mps 760 mmHg 61%
    21:00 +17°C° 0 mm 4 mps 760 mmHg 64%
    22:00 +15°C° 0 mm 4 mps 761 mmHg 67%
    23:00 +15°C° 0 mm 4 mps 761 mmHg 64%

    Day after tomorrow, 22 September, Friday

    Time Temperature Precipitation Wind Pressure Humidity
    00:00 +14°C° 0 mm 3 mps 760 mmHg 61%
    01:00 +14°C° 0 mm 3 mps 760 mmHg 58%
    02:00 +14°C° 0 mm 3 mps 760 mmHg 57%
    03:00 +14°C° 0 mm 3 mps 760 mmHg 55%
    04:00 +14°C° 0 mm 2 mps 759 mmHg 53%
    05:00 +15°C° 0 mm 2 mps 760 mmHg 52%
    06:00 +16°C° 0 mm 2 mps 760 mmHg 51%
    07:00 +16°C° 0 mm 2 mps 761 mmHg 50%
    08:00 +20°C° 0 mm 3 mps 760 mmHg 43%
    09:00 +24°C° 0 mm 3 mps 760 mmHg 36%
    10:00 +28°C° 0 mm 3 mps 760 mmHg 29%
    11:00 +29°C° 0 mm 3 mps 759 mmHg 26%
    12:00 +30°C° 0 mm 3 mps 759 mmHg 23%
    13:00 +33°C° 0 mm 3 mps 758 mmHg 19%
    14:00 +31°C° 0 mm 3 mps 757 mmHg 22%
    15:00 +32°C° 0 mm 4 mps 757 mmHg 24%
    16:00 +32°C° 0 mm 4 mps 757 mmHg 26%
    17:00 +28°C° 0 mm 4 mps 757 mmHg 35%
    18:00 +25°C° 0 mm 4 mps 758 mmHg 43%
    19:00 +21°C° 0 mm 5 mps 758 mmHg 52%
    20:00 +20°C° 0 mm 4 mps 759 mmHg 54%
    21:00 +19°C° 0 mm 4 mps 759 mmHg 57%
    22:00 +19°C° 0 mm 3 mps 759 mmHg 60%
    23:00 +18°C° 0 mm 3 mps 758 mmHg 59%

    23 September, Saturday

    Time Temperature Precipitation Wind Pressure Humidity
    00:00 +18°C° 0 mm 3 mps 758 mmHg 58%
    01:00 +18°C° 0 mm 3 mps 758 mmHg 57%
    02:00 +18°C° 0 mm 3 mps 757 mmHg 56%
    03:00 +17°C° 0 mm 3 mps 757 mmHg 55%
    04:00 +17°C° 0 mm 3 mps 756 mmHg 54%
    05:00 +18°C° 0 mm 3 mps 756 mmHg 52%
    06:00 +19°C° 0 mm 3 mps 757 mmHg 50%
    07:00 +20°C° 0 mm 3 mps 757 mmHg 49%
    08:00 +24°C° 0 mm 3 mps 756 mmHg 40%
    09:00 +28°C° 0 mm 4 mps 756 mmHg 31%
    10:00 +33°C° 0 mm 4 mps 755 mmHg 22%
    11:00 +34°C° 0 mm 5 mps 754 mmHg 20%
    12:00 +36°C° 0 mm 5 mps 754 mmHg 17%
    13:00 +37°C° 0 mm 5 mps 753 mmHg 15%
    14:00 +37°C° 0 mm 5 mps 752 mmHg 16%
    15:00 +36°C° 0 mm 5 mps 752 mmHg 17%
    16:00 +36°C° 0 mm 5 mps 751 mmHg 18%
    17:00 +33°C° 0 mm 4 mps 751 mmHg 22%
    18:00 +29°C° 0 mm 4 mps 752 mmHg 25%
    19:00 +26°C° 0 mm 3 mps 752 mmHg 29%
    20:00 +26°C° 0 mm 3 mps 752 mmHg 29%
    21:00 +25°C° 0 mm 3 mps 752 mmHg 29%
    22:00 +24°C° 0 mm 3 mps 752 mmHg 30%
    23:00 +24°C° 0 mm 3 mps 751 mmHg 30%

    24 September, Sunday

    Time Temperature Precipitation Wind Pressure Humidity
    00:00 +23°C° 0 mm 4 mps 750 mmHg 29%
    01:00 +22°C° 0 mm 4 mps 749 mmHg 29%
    02:00 +25°C° 0 mm 4 mps 749 mmHg 26%
    03:00 +26°C° 0 mm 5 mps 749 mmHg 22%
    04:00 +28°C° 0 mm 5 mps 749 mmHg 18%
    05:00 +27°C° 0 mm 6 mps 750 mmHg 21%
    06:00 +27°C° 0 mm 6 mps 751 mmHg 24%
    07:00 +27°C° 0 mm 7 mps 752 mmHg 26%
    08:00 +28°C° 0 mm 7 mps 752 mmHg 26%
    09:00 +30°C° 0 mm 6 mps 752 mmHg 25%
    10:00 +32°C° 0 mm 6 mps 752 mmHg 24%
    11:00 +33°C° 0 mm 7 mps 752 mmHg 23%
    12:00 +34°C° 0 mm 7 mps 751 mmHg 22%
    13:00 +34°C° 0 mm 8 mps 751 mmHg 22%
    14:00 +34°C° 0 mm 8 mps 751 mmHg 21%
    15:00 +34°C° 0 mm 7 mps 751 mmHg 21%
    16:00 +34°C° 0 mm 7 mps 751 mmHg 21%
    17:00 +30°C° 0 mm 5 mps 751 mmHg 24%
    18:00 +28°C° 0 mm 4 mps 752 mmHg 28%
    19:00 +25°C° 0 mm 3 mps 753 mmHg 31%
    20:00 +24°C° 0 mm 3 mps 753 mmHg 32%
    21:00 +22°C° 0 mm 3 mps 754 mmHg 33%
    22:00 +20°C° 0 mm 3 mps 754 mmHg 34%
    23:00 +19°C° 0 mm 2 mps 755 mmHg 36%

    25 September, Monday

    Time Temperature Precipitation Wind Pressure Humidity
    00:00 +18°C° 0 mm 2 mps 755 mmHg 37%
    01:00 +17°C° 0 mm 2 mps 755 mmHg 38%
    02:00 +16°C° 0 mm 2 mps 756 mmHg 38%
    03:00 +16°C° 0 mm 2 mps 756 mmHg 38%
    04:00 +16°C° 0 mm 3 mps 756 mmHg 38%
    05:00 +15°C° 0 mm 4 mps 757 mmHg 38%
    06:00 +17°C° 0 mm 4 mps 758 mmHg 38%
    07:00 +17°C° 0 mm 5 mps 758 mmHg 38%
    08:00 +20°C° 0 mm 5 mps 758 mmHg 33%
    09:00 +23°C° 0 mm 4 mps 758 mmHg 28%
    10:00 +26°C° 0 mm 4 mps 758 mmHg 23%
    11:00 +28°C° 0 mm 4 mps 757 mmHg 21%
    12:00 +29°C° 0 mm 3 mps 757 mmHg 20%
    13:00 +31°C° 0 mm 3 mps 756 mmHg 18%
    14:00 +29°C° 0 mm 3 mps 757 mmHg 23%
    15:00 +28°C° 0 mm 3 mps 757 mmHg 28%
    16:00 +26°C° 0 mm 3 mps 757 mmHg 33%
    17:00 +25°C° 0 mm 3 mps 758 mmHg 38%
    18:00 +23°C° 0 mm 2 mps 759 mmHg 44%
    19:00 +21°C° 0 mm 1 mps 760 mmHg 49%
    20:00 +20°C° 0 mm 1 mps 760 mmHg 53%
    21:00 +19°C° 0 mm 1 mps 760 mmHg 57%
    22:00 +19°C° 0 mm 1 mps 760 mmHg 61%
    23:00 +18°C° 0.1 mm 1 mps 760 mmHg 65%
    Show more